Погода в Ружине

Украина / Житомирская область     49°43′23″N   29°13′16″E
В апреле 2022 года жителям России запретили посещать сайт meteo.paraplan.net по решению Генеральной прокуратуры. Аудитория сайта уменьшилась в 10 раз. Владельцы сайта не видят смысла в поддержке погодного сервера в таких условиях. Сайт будет закрыт в октябре.
темп.,
°C
ветер,
м/с
пор.,
м/с
влажн.,
%
обл.,
%
осадки,
мм/ч
давл.,
гПа
погр.,
м
30 сентября, пт
пт3000:00+14ююв2292100 2.4 100822
03:00+13ю01935 2.7 100910
06:00+12зюз11926 0.0 101010
09:00+15зсз228354 0.0 1011123
12:00+19з2266100 0.0 1013533
15:00+20зюз2257100 0.0 1013970
18:00+19ююз116769 0.0 101411
21:00+16ююз337478 0.0 101542
1 октября, сб
сб100:00+15ю348044 0.0 101555
03:00+14ююз378050 0.0 1015125
06:00+13зюз41083100 0.0 1015190
09:00+14з4108198 0.0 1016367
12:00+19з5759100 0.0 1016789
15:00+16зсз3676100 0.3 1016234
18:00+15зсз3883100 0.3 1015351
21:00+14ссз0088100 0.6 101310
2 октября, вс
вс200:00+13св2394100 1.1 1012110
03:00+13всв359672 1.6 1010151
06:00+13юв2295100 0.1 100849
09:00+14зсз2392100 0.4 1007184
12:00+14зсз51094100 0.4 1007744
15:00+12сз81386100 0.6 1008793
18:00+12сз71283100 0.1 1008869
21:00+11сз7128760 0.1 1009775
3 октября, пн
пн300:00+10зсз71390100 0.1 1009712
03:00+10зсз71390100 0.6 1009796
06:00+10зсз7138996 0.2 1008816
09:00+9зсз81387100 0.5 10091097
12:00+10сз71185100 0.5 10101088
15:00+11зсз71076100 0.7 1011993
18:00+10зсз71283100 0.1 1013690
21:00+9з61187100 0.2 1014598
4 октября, вт
вт400:00+9з51080100 0.1 1014617
03:00+9зюз61187100 0.1 1013606
06:00+9зюз61189100 0.3 1013638
09:00+9зюз61090100 0.8 1013631
12:00+10зюз698393 1.2 1013750
15:00+12зсз5774100 2.9 1014916
18:00+10зсз477823 0.4 1015287
21:00+9зсз378896 0.4 1017189